Location: Alfortville
(48.8058°N, 2.4204°E)
Time: 14:39:38
(UTC+00:00)

Cosmos 1408 - Pass Details

Date: 24 October 2021
Orbit: 465 x 490 km, 82.6° (Epoch: 15 November)

Event Time Altitude Azimuth Distance (km) Brightness Sun altitude
Rises 17:28:13 0° 5° (N) 2,539 6.1 -8.0°
Reaches altitude 10° 17:31:02 10° 29° (NNE) 1,649 4.9 -8.4°
Maximum altitude 17:33:14 15° 67° (ENE) 1,344 4.2 -8.8°
Enters shadow 17:35:04 11° 100° (E) 1,552 4.5 -9.1°
